DW7601 San Vito IT current weather conditions

sailwx.info

Wind from 045 at 1 knots gusting 4

Air temperature 13.3° C
Dewpoint 8.6° C

Last reported at 2014-Dec-22 09:50 UTC.
Time now 2014-Dec-22 10:36 UTC

Location: N 39°27' E 009°32'.
View on Google Maps.

See reports from other nearby stations

  
Tides and Currents Weather Stations Pressure Air Temp Water Temp Dewpoint Dewpoint Depression Visibility Wind Speed Wind Dir Waves Ship Positions
date/time (UTC)wind fromknots sea level pressurealtimeterstation pressurevisibilityair tempwater tempwave heightnotes
2014-Dec-22 09:50 045 1 gusting 4 13.3
2014-Dec-22 09:40 12.8
2014-Dec-22 09:30 338 1 gusting 4 12.2
2014-Dec-22 09:20 11.7
2014-Dec-22 09:10 022 2 gusting 4 11.7
2014-Dec-22 09:00 11.1
2014-Dec-22 08:50 022 1 gusting 4 10.6
2014-Dec-22 08:40 090 2 gusting 4 10.0
2014-Dec-22 08:30 068 1 gusting 4 9.4
2014-Dec-22 08:20 8.9
2014-Dec-22 08:10 022 2 gusting 5 8.9
2014-Dec-22 08:00 022 2 gusting 6 8.3
2014-Dec-22 07:50 338 2 gusting 5 8.3
2014-Dec-22 07:40 8.3
2014-Dec-22 07:30 202 2 gusting 5 8.3
2014-Dec-22 07:20 022 1 gusting 5 8.3
2014-Dec-22 07:10 8.3
2014-Dec-22 07:00 045 2 gusting 6 8.3
2014-Dec-22 06:50 022 2 gusting 6 8.3
2014-Dec-22 06:40 022 1 gusting 5 8.3
2014-Dec-22 06:30 068 1 gusting 4 8.3
2014-Dec-22 06:20 045 1 gusting 2 8.3
2014-Dec-22 06:10 022 1 gusting 4 8.3
2014-Dec-22 06:00 8.3
2014-Dec-22 05:50 022 2 gusting 6 7.8
2014-Dec-22 05:40 202 1 gusting 2 8.3
2014-Dec-22 05:30 338 0 gusting 1 7.8
2014-Dec-22 05:20 338 1 gusting 2 7.8
2014-Dec-22 05:10 7.8
2014-Dec-22 05:00 292 2 gusting 4 7.8
2014-Dec-22 04:50 090 1 gusting 4 8.3
2014-Dec-22 04:40 022 1 gusting 5 8.3
2014-Dec-22 04:30 022 1 gusting 1 8.3
2014-Dec-22 04:20 8.3
2014-Dec-22 04:10 022 2 gusting 6 8.3
2014-Dec-22 04:00 338 2 gusting 6 8.3
2014-Dec-22 03:50 068 1 gusting 5 8.3
2014-Dec-22 03:40 8.3
2014-Dec-22 03:30 315 2 gusting 4 8.3
2014-Dec-22 03:20 338 1 gusting 6 8.9
2014-Dec-22 03:10 338 1 gusting 2 8.9
2014-Dec-22 03:00 338 2 gusting 6 8.9
2014-Dec-22 02:50 022 2 gusting 6 8.9
2014-Dec-22 02:40 338 1 gusting 5 8.9
2014-Dec-22 02:30 022 1 gusting 5 8.9
2014-Dec-22 02:20 022 1 gusting 4 9.4
2014-Dec-22 02:10 9.4
2014-Dec-22 02:00 045 2 gusting 5 9.4
2014-Dec-22 01:50 338 1 gusting 4 9.4
2014-Dec-22 01:40 022 1 gusting 2 9.4
2014-Dec-22 01:30 9.4
2014-Dec-22 01:20 292 0 gusting 1 9.4
2014-Dec-22 01:10 338 0 gusting 0 10.0
2014-Dec-22 01:00 045 1 gusting 2 10.0
2014-Dec-22 00:50 338 1 gusting 4 10.0
2014-Dec-22 00:40 10.0
2014-Dec-22 00:30 10.0
2014-Dec-22 00:20 10.6
2014-Dec-22 00:10 180 1 gusting 2 10.6
2014-Dec-22 00:00 248 1 gusting 4 10.6
2014-Dec-21 23:50 315 2 gusting 4 10.6
2014-Dec-21 23:40 045 1 gusting 4 10.6
2014-Dec-21 23:30 315 0 gusting 2 10.6
2014-Dec-21 23:20 270 0 gusting 1 10.6
2014-Dec-21 23:10 338 2 gusting 5 11.1
2014-Dec-21 23:00 022 2 gusting 5 11.1
2014-Dec-21 22:50 068 2 gusting 6 11.1
2014-Dec-21 22:40 022 2 gusting 6 11.1
2014-Dec-21 22:30 068 2 gusting 4 11.1
2014-Dec-21 22:20 022 2 gusting 5 11.7
2014-Dec-21 22:10 022 2 gusting 4 11.7
2014-Dec-21 22:00 022 1 gusting 4 11.7
2014-Dec-21 21:50 068 1 gusting 4 11.7
2014-Dec-21 21:40 022 2 gusting 6 11.7
2014-Dec-21 21:30 292 2 gusting 5 11.7
2014-Dec-21 21:20 022 2 gusting 5 11.7
2014-Dec-21 21:10 11.7
2014-Dec-21 21:00 022 4 gusting 6 11.7
2014-Dec-21 20:50 022 4 gusting 6 11.7
2014-Dec-21 20:40 338 3 gusting 6 11.7
2014-Dec-21 20:30 022 3 gusting 5 11.7
2014-Dec-21 20:20 022 2 gusting 4 12.2
2014-Dec-21 20:10 022 2 gusting 6 12.2
2014-Dec-21 20:00 338 2 gusting 6 12.2
2014-Dec-21 19:50 068 1 gusting 5 12.2
2014-Dec-21 19:40 12.8
2014-Dec-21 19:30 022 1 gusting 4 12.8
2014-Dec-21 19:20 12.8
2014-Dec-21 19:10 12.8
2014-Dec-21 19:00 12.8
2014-Dec-21 18:40 248 1 gusting 4 12.8
2014-Dec-21 18:20 12.8
2014-Dec-21 18:10 338 1 gusting 5 12.8
2014-Dec-21 18:00 12.8
2014-Dec-21 17:50 045 1 gusting 2 13.3
2014-Dec-21 17:40 022 2 gusting 6 13.3
2014-Dec-21 17:30 022 0 gusting 2 13.3
2014-Dec-21 17:20 045 0 gusting 2 13.3
2014-Dec-21 17:10 248 0 gusting 1 13.3
2014-Dec-21 17:00 338 13.3
2014-Dec-21 16:50 315 13.9
2014-Dec-21 16:40 13.9
2014-Dec-21 16:30 338 0 gusting 5 14.4
2014-Dec-21 16:20 315 0 gusting 2 14.4
2014-Dec-21 16:10 14.4
2014-Dec-21 16:00 090 1 gusting 5 15.0
2014-Dec-21 15:50 15.0
2014-Dec-21 15:40 15.0
2014-Dec-21 15:30 270 1 gusting 4 15.6
2014-Dec-21 15:20 270 1 gusting 4 15.6
2014-Dec-21 15:10 338 1 gusting 4 16.1
2014-Dec-21 15:00 338 2 gusting 4 16.1
2014-Dec-21 14:50 022 2 gusting 4 16.7
2014-Dec-21 14:40 338 4 gusting 6 16.7
2014-Dec-21 14:30 16.7
2014-Dec-21 14:20 338 4 gusting 6 16.7
2014-Dec-21 14:10 022 5 gusting 7 16.7
2014-Dec-21 14:00 338 4 gusting 6 17.2
2014-Dec-21 13:50 022 4 gusting 6 17.2
2014-Dec-21 13:40 045 4 gusting 7 17.2
2014-Dec-21 13:30 022 5 gusting 7 17.8
2014-Dec-21 13:20 022 5 gusting 7 17.8
2014-Dec-21 13:10 022 4 gusting 6 17.8
2014-Dec-21 13:00 022 4 gusting 6 17.8
2014-Dec-21 12:50 022 4 gusting 6 18.3
2014-Dec-21 12:40 022 4 gusting 6 17.8
2014-Dec-21 12:30 18.3
2014-Dec-21 12:20 338 4 gusting 6 18.3
2014-Dec-21 12:10 17.8
2014-Dec-21 12:00 292 4 gusting 6 17.8
2014-Dec-21 11:50 022 4 gusting 8 17.8
2014-Dec-21 11:40 17.8
2014-Dec-21 11:30 17.8
2014-Dec-21 11:20 270 4 gusting 7 18.3
2014-Dec-21 11:10 292 4 gusting 6 17.8
2014-Dec-21 11:00 17.8
2014-Dec-21 10:50 270 4 gusting 7 17.8
2014-Dec-21 10:40 338 2 gusting 4 17.8
2014-Dec-21 10:30 022 3 gusting 6 17.8
2014-Dec-21 10:20 270 2 gusting 4 17.8
2014-Dec-21 10:10 022 2 gusting 4 17.2
2014-Dec-21 10:00 292 2 gusting 6 17.2
2014-Dec-21 09:50 315 2 gusting 6 16.7
2014-Dec-21 09:40 338 4 gusting 8 16.7
2014-Dec-21 09:30 045 4 gusting 8 16.7
2014-Dec-21 09:20 270 2 gusting 6 16.1
2014-Dec-21 09:10 16.1
2014-Dec-21 09:00 270 4 gusting 10 16.1
2014-Dec-21 08:50 270 5 gusting 10 15.6
2014-Dec-21 08:40 15.6
2014-Dec-21 08:30 292 4 gusting 10 15.0
2014-Dec-21 08:20 315 4 gusting 10 15.0
2014-Dec-21 08:10 292 4 gusting 10 14.4
2014-Dec-21 08:00 338 3 gusting 6 14.4
2014-Dec-21 07:50 292 2 gusting 5 14.4
2014-Dec-21 07:40 248 2 gusting 4 13.9
2014-Dec-21 07:30 112 2 gusting 5 13.9
2014-Dec-21 07:20 292 2 gusting 6 13.9
2014-Dec-21 07:10 13.9
2014-Dec-21 07:00 292 2 gusting 6 13.9
2014-Dec-21 06:50 270 2 gusting 5 13.9
2014-Dec-21 06:40 338 2 gusting 6 13.9
2014-Dec-21 06:30 338 2 gusting 6 14.4
2014-Dec-21 06:20 315 2 gusting 5 14.4
2014-Dec-21 06:10 338 2 gusting 8 14.4
2014-Dec-21 06:00 315 2 gusting 7 14.4
2014-Dec-21 05:50 022 4 gusting 6 14.4
2014-Dec-21 05:40 022 4 gusting 11 14.4
2014-Dec-21 05:30 14.4
2014-Dec-21 05:20 292 5 gusting 10 14.4
2014-Dec-21 05:10 14.4
2014-Dec-21 05:00 338 5 gusting 8 14.4
2014-Dec-21 04:50 338 5 gusting 10 14.4
2014-Dec-21 04:40 068 4 gusting 7 14.4
2014-Dec-21 04:30 14.4
2014-Dec-21 04:20 14.4
2014-Dec-21 04:10 338 6 gusting 13 15.0
2014-Dec-21 04:00 270 6 gusting 13 15.0
2014-Dec-21 03:50 15.0
2014-Dec-21 03:40 338 6 gusting 10 15.0
2014-Dec-21 03:30 15.0
2014-Dec-21 03:20 292 6 gusting 13 15.0
2014-Dec-21 03:10 15.0
2014-Dec-21 03:00 270 6 gusting 11 14.4
2014-Dec-21 02:50 15.0
2014-Dec-21 02:40 338 6 gusting 10 14.4
2014-Dec-21 02:30 315 5 gusting 12 14.4
2014-Dec-21 02:20 202 5 gusting 8 14.4
2014-Dec-21 02:10 292 6 gusting 12 15.0
2014-Dec-21 02:00 14.4
2014-Dec-21 01:50 338 6 gusting 10 14.4
2014-Dec-21 01:40 14.4
2014-Dec-21 01:30 338 5 gusting 8 14.4
2014-Dec-21 01:20 180 4 gusting 6 14.4
2014-Dec-21 01:10 15.0
2014-Dec-21 01:00 15.0
2014-Dec-21 00:50 022 5 gusting 8 15.0
2014-Dec-21 00:40 15.0
2014-Dec-21 00:30 292 5 gusting 7 15.0
2014-Dec-21 00:20 15.0
2014-Dec-21 00:10 022 4 gusting 7 15.0
2014-Dec-21 00:00 068 4 gusting 7 15.0
2014-Dec-20 23:50 022 4 gusting 7 15.0
2014-Dec-20 23:40 022 4 gusting 6 15.0
2014-Dec-20 23:30 338 5 gusting 10 15.0
2014-Dec-20 23:20 338 5 gusting 8 15.0
2014-Dec-20 23:10 022 4 gusting 6 15.0
2014-Dec-20 23:00 338 5 gusting 10 15.0
2014-Dec-20 22:50 338 4 gusting 8 15.6
2014-Dec-20 22:40 338 5 gusting 7 15.0
2014-Dec-20 22:30 292 5 gusting 11 15.6
2014-Dec-20 22:20 022 4 gusting 11 15.6
2014-Dec-20 22:10 15.0
2014-Dec-20 22:00 292 2 gusting 5 15.0
2014-Dec-20 21:50 090 2 gusting 5 15.6
2014-Dec-20 21:40 270 2 gusting 5 15.0
2014-Dec-20 21:30 292 2 gusting 7 15.6
2014-Dec-20 21:20 292 2 gusting 4 15.0
2014-Dec-20 21:10 022 2 gusting 7 15.6
2014-Dec-20 21:00 022 2 gusting 7 15.6
2014-Dec-20 20:50 315 3 gusting 6 15.6
2014-Dec-20 20:40 270 6 gusting 10 15.6
2014-Dec-20 20:30 292 4 gusting 8 15.6
2014-Dec-20 20:20 292 5 gusting 13 15.6
2014-Dec-20 20:10 338 6 gusting 7 15.6
2014-Dec-20 20:00 248 6 gusting 11 15.6
2014-Dec-20 19:50 15.6
2014-Dec-20 19:40 022 4 gusting 12 15.6
2014-Dec-20 19:30 292 4 gusting 7 15.6
2014-Dec-20 19:20 338 5 gusting 8 15.6
2014-Dec-20 19:10 15.6
2014-Dec-20 19:00 022 4 gusting 6 15.6
2014-Dec-20 18:50 068 4 gusting 8 15.6
2014-Dec-20 18:40 292 4 gusting 5 15.6
2014-Dec-20 18:30 292 2 gusting 6 15.6
2014-Dec-20 18:20 022 1 gusting 1 15.6
2014-Dec-20 18:10 338 1 gusting 4 15.6
2014-Dec-20 18:00 338 1 gusting 4 15.6
2014-Dec-20 17:50 270 1 gusting 6 15.6
2014-Dec-20 17:40 135 1 gusting 6 15.6
2014-Dec-20 17:30 248 4 gusting 7 15.6
2014-Dec-20 17:20 338 3 gusting 5 15.6
2014-Dec-20 17:10 022 4 gusting 7 16.1
2014-Dec-20 17:00 068 2 gusting 5 15.6
2014-Dec-20 16:50 022 4 gusting 6 16.1
2014-Dec-20 16:40 292 3 gusting 6 16.1
2014-Dec-20 16:30 16.1
2014-Dec-20 16:20 022 2 gusting 5 16.1
2014-Dec-20 16:10 16.1
2014-Dec-20 16:00 270 5 gusting 8 16.7
2014-Dec-20 15:50 16.7
2014-Dec-20 15:40 16.7
2014-Dec-20 15:30 202 2 gusting 4 16.7
2014-Dec-20 15:20 338 2 gusting 6 16.7
2014-Dec-20 15:10 338 4 gusting 8 17.2
2014-Dec-20 15:00 315 4 gusting 6 17.2
2014-Dec-20 14:50 338 5 gusting 6 17.2
2014-Dec-20 14:40 292 5 gusting 6 17.8
2014-Dec-20 14:30 292 4 gusting 6 17.8
2014-Dec-20 14:20 315 5 gusting 6 17.8
2014-Dec-20 14:10 292 4 gusting 6 17.8
2014-Dec-20 14:00 292 5 gusting 13 18.3
2014-Dec-20 13:50 270 5 gusting 11 18.3
2014-Dec-20 13:40 022 5 gusting 10 18.3
2014-Dec-20 13:30 270 4 gusting 6 18.3
2014-Dec-20 13:20 270 5 gusting 8 18.3
2014-Dec-20 13:10 18.3
2014-Dec-20 13:00 270 3 gusting 5 18.3
2014-Dec-20 12:50 022 5 gusting 8 18.3
2014-Dec-20 12:40 338 3 gusting 7 18.3
2014-Dec-20 12:30 292 2 gusting 7 18.3
2014-Dec-20 12:20 022 3 gusting 4 18.3
2014-Dec-20 12:10 270 4 gusting 6 18.3
2014-Dec-20 12:00 292 4 gusting 10 18.9
2014-Dec-20 11:50 292 2 gusting 6 18.9
2014-Dec-20 11:40 292 3 gusting 5 18.9
2014-Dec-20 11:30 248 5 gusting 11 18.9
2014-Dec-20 11:20 18.3
2014-Dec-20 11:10 315 6 gusting 8 18.3
2014-Dec-20 11:00 338 6 gusting 8 18.3
2014-Dec-20 10:50 338 5 gusting 8 18.3
2014-Dec-20 10:40 315 5 gusting 7 18.3
2014-Dec-20 10:30 18.3
2014-Dec-20 10:20 315 5 gusting 7 18.3
2014-Dec-20 10:10 338 4 gusting 6 17.8
2014-Dec-20 10:00 022 4 gusting 7 17.8